[[{"header":{"parameterUnit":"m.s-1","parameterCategory":1,"la1":30.2991,"la2":30.254,"lo1":-89.0895,"lo2":-89.0444,"dy":0.0017,"dx":0.0017,"nx":28,"ny":28,"refTime":"2024-02-02T09:00:00:Z","depth":0,"parameterNumber":2,"parameterNumberName":"U-component_of_WINDS"},"data":[0,0,0,0,0,0,0,0,0,0,0,0,0,0,0,0,0,0,0,0,0,0,0,0,0,0,0,0,0,0,0,0,0,0,0,0,0,0,0,0,0,0,0,0,0,0,0,0,0,0,0,0,0,0,0,0,0,0,-8.6993,-8.6993,0,-8.6987,-8.6987,-8.6987,-8.6839,-8.6835,-8.6831,-8.6828,-8.6821,-8.6824,-8.6827,0,0,0,0,0,0,0,0,0,0,0,0,0,-8.6876,-8.6879,-8.6993,-8.6993,-8.6993,-8.6987,-8.6987,-8.6987,-8.6839,-8.6835,-8.683,-8.6826,-8.682,-8.6824,-8.6828,0,0,0,0,0,0,0,0,0,0,0,0,0,-8.6905,-8.688,-8.6993,-8.6919,-8.6912,-8.6987,-8.6987,-8.6987,-8.684,-8.6835,-8.6829,-8.6824,-8.6818,-8.6823,-8.6828,-8.6974,0,0,-8.6844,-8.6846,0,0,0,0,0,0,0,0,-8.6903,-8.6909,-8.693,-8.6924,-8.6917,-8.6908,-8.6943,-8.6983,-8.6842,-8.6868,-8.6827,-8.6821,-8.6854,-8.6856,-8.6867,-8.6974,-8.6973,-8.6844,-8.6847,-8.6849,-8.6851,0,0,0,0,0,0,0,-8.6901,-8.6908,-8.6991,-8.693,-8.6922,-8.6885,-8.6883,-8.695,-8.6893,-8.6865,-8.6854,-8.6856,-8.685,-8.6863,-8.6866,-8.6973,-8.6844,-8.6848,-8.6852,-8.6854,-8.7197,-8.7203,0,0,0,0,0,0,-8.691,-8.6908,-8.6991,-8.6991,-8.6896,-8.6892,-8.689,-8.6917,-8.6892,-8.6883,-8.686,-8.6849,-8.6857,-8.686,-8.6865,-8.7032,-8.6849,-8.6854,-8.6857,-8.7191,-8.7199,-8.7205,0,0,0,0,0,0,-8.6908,-8.6919,-8.6991,-8.6946,-8.6953,-8.69,-8.6932,-8.6919,-8.6932,-8.6889,-8.6878,-8.6884,-8.6853,-8.6858,-8.6948,-8.703,-8.6856,-8.6861,-8.7184,-8.7194,-8.7202,-8.7369,0,0,0,0,0,0,-8.6905,-8.6919,-8.6974,-8.6949,-8.6956,-8.7074,-8.6937,-8.6923,-8.6942,-8.6926,-8.6908,-8.69,-8.6849,-8.6941,-8.6953,-8.7034,-8.6865,-8.7176,-8.7188,-8.7199,-8.7356,-8.7383,-8.7406,0,0,0,0,0,-8.6902,-8.7021,-8.6977,-8.6988,-8.7023,-8.7079,-8.7083,-8.7022,-8.6949,-8.7003,-8.6975,-8.69,-8.702,-8.6951,-8.6963,-8.7047,-8.7171,-8.7185,-8.7198,-8.7345,-8.7378,-8.7405,0,0,0,0,0,0,-8.7057,-8.7017,-8.6967,-8.7083,-8.7086,-8.7054,-8.7121,-8.7059,-8.7083,-8.7067,-8.699,-8.6988,-8.7089,-8.7077,-8.7002,-8.7187,-8.7082,-8.7099,-8.719,-8.722,-8.7245,-8.7244,-8.6869,0,0,0,0,0,-8.7105,-8.7154,-8.7116,-8.7222,-8.7226,-8.7174,-8.7196,-8.7149,-8.7148,-8.7149,-8.7127,-8.713,-8.7167,-8.7194,-8.7227,-8.7355,-8.7348,-8.7419,-8.7444,-8.7465,-8.7479,-8.7544,-8.7574,-8.725,-8.725,-8.725,0,0,-8.7204,-8.7188,-8.7223,-8.7252,-8.7249,-8.7301,-8.7176,-8.7236,-8.7273,-8.7158,-8.724,-8.7225,-8.7223,-8.7332,-8.7379,-8.7326,-8.7567,-8.7482,-8.7499,-8.7502,-8.7561,-8.7592,-8.7619,-8.726,-8.7258,-8.7256,0,0,-8.7409,-8.7404,-8.749,-8.7489,-8.7486,-8.7451,-8.7472,-8.7451,-8.7436,-8.7518,-8.7432,-8.7476,-8.7543,-8.7544,-8.7554,-8.7763,-8.7694,-8.7776,-8.7905,-8.7969,-8.7995,-8.8017,-8.8089,-8.8116,-8.7791,-8.7791,-8.7792,0,-8.7532,-8.7607,-8.7542,-8.7608,-8.7622,-8.7521,-8.7607,-8.761,-8.7618,-8.763,-8.7571,-8.7653,-8.7645,-8.7752,-8.7803,-8.7815,-8.7835,-8.7775,-8.7997,-8.8018,-8.8038,-8.8105,-8.8133,-8.7801,-8.78,-8.7799,-8.7798,0,-8.7757,-8.7811,-8.7881,-8.7891,-8.7914,-8.799,-8.7935,-8.7967,-8.7919,-8.789,-8.7974,-8.7961,-8.7989,-8.8011,-8.7965,-8.8112,-8.8079,-8.801,-8.7903,-8.8079,-8.8141,-8.8167,-8.7815,-8.7811,-8.7809,-8.7806,0,0,-8.8058,-8.8031,-8.8058,-8.806,-8.805,-8.809,-8.8162,-8.8189,-8.8216,-8.8226,-8.8283,-8.8343,-8.8279,-8.829,-8.8244,-8.8301,-8.8464,-8.8224,-8.8223,-8.8266,-8.8623,-8.8672,-8.8703,-8.842,-8.8425,-8.8429,-8.8622,0,-8.8254,-8.8373,-8.8317,-8.8443,-8.8491,-8.8397,-8.8459,-8.846,-8.8435,-8.8472,-8.8445,-8.8488,-8.8401,-8.8407,-8.846,-8.8433,-8.8534,-8.8419,-8.847,-8.8473,-8.847,-8.8736,-8.8789,-8.8971,-8.8646,-8.865,-8.8653,0,-8.8498,-8.8518,-8.8649,-8.8629,-8.8647,-8.8704,-8.8723,-8.8761,-8.8759,-8.8738,-8.8751,-8.8692,-8.876,-8.8657,-8.8749,-8.8672,-8.8691,-8.8681,-8.8687,-8.8686,-8.8571,-8.8739,-8.9028,-8.9055,-8.8691,-8.8688,-8.8685,0,-8.87,-8.876,-8.8845,-8.8851,-8.8831,-8.8873,-8.8867,-8.886,-8.888,-8.8898,-8.891,-8.8936,-8.895,-8.8972,-8.8921,-8.8851,-8.902,-8.8913,-8.9002,-8.9003,-8.9038,-8.9036,-8.9331,-8.9057,-8.9057,-8.9056,-8.9055,0,-8.8923,-8.9006,-8.8935,-8.8987,-8.9077,-8.9013,-8.9104,-8.9087,-8.9083,-8.9129,-8.9051,-8.9097,-8.9029,-8.9068,-8.9029,-8.911,-8.9118,-8.9101,-8.9089,-8.9106,-8.9107,-8.9114,-8.9098,-8.9063,-8.9062,-8.906,-8.9059,0,-8.9162,-8.9118,-8.9204,-8.9179,-8.9175,-8.9242,-8.922,-8.9267,-8.9239,-8.9299,-8.931,-8.9265,-8.9307,-8.9259,-8.9298,-8.9271,-8.938,-8.9351,-8.938,-8.937,-8.9461,-8.9452,-8.9767,-8.9804,-8.951,-8.9513,-8.9516,0,-8.9305,-8.9366,-8.9348,-8.9374,-8.9372,-8.9415,-8.9435,-8.9375,-8.9399,-8.9402,-8.9449,-8.9485,-8.9509,-8.9581,-8.9551,-8.958,-8.9549,-8.9658,-8.9553,-8.9567,-8.9547,-8.9542,-8.9547,-8.9678,-8.9681,-8.9684,-8.9687,0,-8.9563,-8.9538,-8.9569,-8.9594,-8.962,-8.9636,-8.9647,-8.9673,-8.961,-8.9641,-8.9683,-8.9702,-8.9742,-8.9777,-8.9798,-8.9791,-8.9728,-8.9721,-8.9742,-8.9758,-8.9771,-8.9762,-8.9435,-8.9713,-8.971,-8.9708,-8.9707,-8.9706,-8.9755,-8.9805,-8.9799,-8.9837,-8.9839,-8.9851,-8.9893,-8.987,-8.9904,-8.993,-8.9894,-8.9946,-8.9943,-8.9964,-8.9965,-9.0004,-8.9958,-8.999,-8.9997,-9.0005,-9.0017,-8.9768,-9.0009,-9.0008,-9.0007,-9.0006,-9.0006,0,-9.0006,-8.9998,-9.0034,-9.005,-9.008,-9.002,-9.0029,-9.0057,-9.0104,-9.0107,-9.0133,-9.0181,-9.0216,-9.019,-9.0219,-9.0255,-9.0227,-9.0264,-9.0259,-9.0258,-9.0059,-9.0035,-9.0287,-9.0286,-9.0286,-9.0286,-9.0286,-9.0286,-9.0139,-9.0219,-9.0194,-9.0274,-9.0266,-9.0316,-9.0325,-9.0336,-9.0337,-9.0394,-9.0423,-9.0406,-9.0397,-9.0425,-9.0454,-9.0446,-9.0458,-9.0506,-9.0487,-9.03,-9.0272,-9.0246,-9.0223,-9.051,-9.051,-9.0682,-9.0684,-9.0685]},{"header":{"parameterUnit":"m.s-1","parameterCategory":1,"la1":30.2991,"la2":30.254,"lo1":-89.0895,"lo2":-89.0444,"dy":0.0017,"dx":0.0017,"nx":28,"ny":28,"refTime":"2024-02-02T09:00:00:Z","depth":0,"parameterNumber":3,"parameterNumberName":"V-component_of_WINDS"},"data":[0,0,0,0,0,0,0,0,0,0,0,0,0,0,0,0,0,0,0,0,0,0,0,0,0,0,0,0,0,0,0,0,0,0,0,0,0,0,0,0,0,0,0,0,0,0,0,0,0,0,0,0,0,0,0,0,0,0,2.1547,2.1546,0,2.1448,2.1447,2.1446,2.139,2.139,2.139,2.139,2.1278,2.1276,2.1273,0,0,0,0,0,0,0,0,0,0,0,0,0,2.1681,2.1679,2.1547,2.1546,2.1545,2.1448,2.1447,2.1445,2.139,2.139,2.139,2.139,2.1279,2.1276,2.1273,0,0,0,0,0,0,0,0,0,0,0,0,0,2.1606,2.1678,2.1548,2.1506,2.1501,2.1449,2.1447,2.1445,2.139,2.139,2.139,2.139,2.128,2.1276,2.1272,2.125,0,0,2.1259,2.1257,0,0,0,0,0,0,0,0,2.1611,2.1601,2.1513,2.1509,2.1503,2.1432,2.1453,2.1379,2.139,2.1432,2.139,2.139,2.1329,2.1321,2.1302,2.1245,2.124,2.1259,2.1256,2.1254,2.1253,0,0,0,0,0,0,0,2.1616,2.1605,2.1508,2.1512,2.1506,2.149,2.1479,2.1439,2.1382,2.1428,2.1424,2.1414,2.1326,2.1306,2.1299,2.1239,2.1259,2.1255,2.1252,2.1251,2.1159,2.1159,0,0,0,0,0,0,2.1629,2.161,2.1511,2.1505,2.1558,2.1487,2.1475,2.1455,2.1383,2.1372,2.1414,2.1412,2.1314,2.1304,2.1295,2.1265,2.1254,2.125,2.1248,2.1159,2.1159,2.1159,0,0,0,0,0,0,2.1632,2.1621,2.1515,2.1556,2.1542,2.1485,2.1463,2.1453,2.1433,2.1372,2.1361,2.1405,2.1313,2.1301,2.1263,2.126,2.1248,2.1245,2.1158,2.1159,2.1159,2.1205,0,0,0,0,0,0,2.1636,2.1622,2.1615,2.1557,2.154,2.1487,2.1462,2.1451,2.1427,2.1423,2.1361,2.135,2.1312,2.1269,2.1258,2.1254,2.1241,2.1158,2.1158,2.1159,2.1203,2.1206,2.1209,0,0,0,0,0,2.1641,2.163,2.1615,2.1603,2.153,2.1487,2.1477,2.1436,2.1427,2.1418,2.138,2.1352,2.1263,2.1266,2.1253,2.1248,2.1158,2.1158,2.1159,2.1202,2.1206,2.1209,0,0,0,0,0,0,2.1685,2.1621,2.1604,2.1574,2.1537,2.1478,2.1465,2.1442,2.1403,2.1401,2.1349,2.1335,2.1302,2.1271,2.1275,2.1223,2.1207,2.1205,2.1244,2.1248,2.1251,2.1258,2.1238,0,0,0,0,0,2.1692,2.1665,2.1609,2.1588,2.1571,2.1522,2.1501,2.1474,2.1431,2.1414,2.1372,2.133,2.1292,2.1268,2.123,2.1199,2.1184,2.1189,2.1192,2.1195,2.1193,2.1174,2.1175,2.1159,2.1159,2.1159,0,0,2.1704,2.1666,2.1651,2.1596,2.1564,2.1535,2.1508,2.1478,2.1455,2.1408,2.1371,2.1339,2.1288,2.1253,2.1236,2.1226,2.1194,2.1195,2.1198,2.1194,2.1174,2.1175,2.1177,2.116,2.116,2.116,0,0,2.1712,2.1682,2.1661,2.163,2.1584,2.1551,2.1547,2.1492,2.147,2.1432,2.1396,2.1367,2.1303,2.1269,2.1243,2.1241,2.1214,2.123,2.1245,2.1227,2.1228,2.1229,2.1228,2.1228,2.1228,2.1228,2.1228,0,2.1733,2.1691,2.1652,2.1625,2.1601,2.1562,2.1539,2.151,2.1452,2.1435,2.1427,2.1347,2.131,2.1267,2.1267,2.1247,2.1239,2.1236,2.1232,2.1232,2.1232,2.123,2.123,2.1231,2.123,2.123,2.123,0,2.1718,2.1689,2.1678,2.1627,2.1602,2.1577,2.1533,2.1511,2.1487,2.1455,2.1416,2.1371,2.1324,2.1311,2.1285,2.1264,2.126,2.1242,2.1225,2.1237,2.1234,2.1233,2.1234,2.1233,2.1232,2.1232,0,0,2.1749,2.168,2.1676,2.1653,2.16,2.1575,2.1548,2.1506,2.1488,2.1449,2.1424,2.1373,2.1357,2.1328,2.1297,2.1282,2.1283,2.1265,2.1263,2.127,2.1256,2.127,2.127,2.1265,2.1265,2.1265,2.126,0,2.1749,2.1702,2.1668,2.1633,2.1606,2.1569,2.1545,2.1509,2.1478,2.1448,2.1413,2.1378,2.136,2.1342,2.1325,2.1286,2.1279,2.1286,2.1239,2.1238,2.1252,2.1268,2.1282,2.128,2.1259,2.1259,2.1259,0,2.1742,2.1709,2.1673,2.1625,2.1612,2.1591,2.155,2.1523,2.148,2.1459,2.1428,2.1398,2.1365,2.1353,2.1307,2.1313,2.1291,2.1269,2.1268,2.1261,2.1248,2.1261,2.1278,2.1278,2.1257,2.1257,2.1257,0,2.1768,2.1714,2.1686,2.1668,2.161,2.1597,2.1571,2.1529,2.1506,2.1469,2.1453,2.1411,2.1388,2.1355,2.1313,2.1309,2.1271,2.1255,2.1251,2.1252,2.1243,2.1244,2.1257,2.1231,2.1231,2.1231,2.1231,0,2.1771,2.175,2.1698,2.168,2.1655,2.1615,2.1591,2.1562,2.1525,2.1499,2.1463,2.1439,2.1387,2.1356,2.1322,2.1289,2.1278,2.1259,2.125,2.1262,2.1264,2.1246,2.1244,2.1231,2.1231,2.1231,2.1231,0,2.1795,2.1759,2.1726,2.1676,2.1663,2.1647,2.1602,2.1582,2.1551,2.1519,2.1509,2.146,2.1421,2.1378,2.1323,2.1301,2.127,2.1257,2.1285,2.128,2.1278,2.1279,2.1278,2.1276,2.1254,2.1254,2.1254,0,2.1799,2.1783,2.1732,2.1715,2.1692,2.1663,2.164,2.16,2.1577,2.1529,2.1515,2.1475,2.1441,2.1381,2.1337,2.1296,2.1282,2.1285,2.1275,2.1287,2.1281,2.1282,2.128,2.1287,2.1287,2.1288,2.1288,0,2.181,2.1794,2.1765,2.173,2.1705,2.1674,2.1642,2.1629,2.1581,2.1557,2.152,2.1494,2.1441,2.1401,2.1355,2.1325,2.1298,2.1292,2.1289,2.13,2.1317,2.1307,2.1292,2.1292,2.1291,2.1291,2.1291,2.1291,2.1823,2.1808,2.1771,2.1739,2.1712,2.1683,2.1663,2.1631,2.16,2.1557,2.1534,2.1497,2.1454,2.139,2.1362,2.133,2.1321,2.1316,2.1314,2.1314,2.1317,2.1323,2.1321,2.1321,2.1321,2.1321,2.1321,0,2.1832,2.1807,2.1779,2.1737,2.1712,2.1694,2.1657,2.1637,2.1606,2.157,2.1539,2.1496,2.1457,2.1413,2.1371,2.1354,2.134,2.1344,2.1344,2.1338,2.1328,2.1335,2.1356,2.1356,2.1356,2.1356,2.1356,2.1356,2.1834,2.1806,2.1786,2.1744,2.1718,2.1685,2.1666,2.1638,2.161,2.1565,2.1535,2.1507,2.1467,2.1422,2.1386,2.1373,2.1359,2.1366,2.135,2.1341,2.1338,2.1335,2.1342,2.1364,2.1364,2.1362,2.1362,2.1362]}]]